Simultaneous Nadir Overpasses (SNOs) Predictions

Prediction of SNOs between LANDSAT-8 and NOAA-19 Satellite Orbit:

Table of predicted SNOs for the next 14.0 days since TLE Epoch: 6/6/2014
Index Date (LANDSAT-8) Time (LANDSAT-8) Lat,Lon (LANDSAT-8) SZA (LANDSAT-8 ) Date (NOAA-19) Time (NOAA-19) Lat,Lon (NOAA-19) SZA (NOAA-19 ) Distance(km) Time Diff (sec)
1 06/08/2014 15:05:35 72.44, -46.40 49.47 06/08/2014 15:04:26 72.54, -48.18 49.58 60.62 69
2 06/08/2014 15:55:13 -71.90, 120.26 131.08 06/08/2014 15:55:09 -71.91, 120.35 131.07 3.03 4
3 06/10/2014 20:39:30 -71.97, 49.31 131.18 06/10/2014 20:39:02 -71.99, 49.25 131.16 3.06 28
4 06/10/2014 21:28:58 71.82,-143.31 48.67 06/10/2014 21:30:07 71.84,-143.25 48.70 3.41 69
5 06/13/2014 01:23:48 -71.97, -21.75 131.32 06/13/2014 01:22:53 -71.97, -21.66 131.32 3.32 55
6 06/13/2014 02:13:15 71.88, 145.72 48.58 06/13/2014 02:13:59 71.90, 145.71 48.61 2.32 44
7 06/15/2014 06:08:02 -72.18, -92.46 131.23 06/15/2014 06:06:50 -72.26, -93.16 131.14 25.41 72
8 06/15/2014 06:57:32 71.92, 74.72 48.52 06/15/2014 06:57:50 71.90, 74.77 48.50 2.59 18
9 06/17/2014 11:41:49 71.95, 3.70 48.47 06/17/2014 11:41:42 71.96, 3.72 48.48 1.06 7
10 06/17/2014 12:31:21 -71.73, 170.97 131.75 06/17/2014 12:32:33 -71.66, 171.55 131.83 22.13 72
11 06/19/2014 16:26:06 71.97, -67.33 48.45 06/19/2014 16:25:33 71.97, -67.24 48.45 3.07 33
12 06/19/2014 17:15:35 -71.91, 100.21 131.61 06/19/2014 17:16:29 -71.90, 100.16 131.63 2.55 54




NCC Satellite Simultaneous Nadir Overpasses (SNOs) Prediction Service
